{"data":{"norad_id":69877,"epoch":"2026-09-19T13:00:58.703904Z","epoch_age_seconds":104373,"freshness":"FRESH","line1":"1 69877U 26156J   26262.54234611  .00002719  00000+0  27601-3 0  9998","line2":"2 69877  97.7459 161.7299 0003165 253.7424 106.3447 14.91668853 11061","mean_motion":14.91668853,"eccentricity":0.0003165,"inclination_deg":97.7459,"raan_deg":161.7299,"arg_perigee_deg":253.7424,"mean_anomaly_deg":106.3447,"bstar":0.00027601,"rev_number":1106,"period_min":96.536171356257,"perigee_km":590.52527603969,"apogee_km":594.9378358356,"semimajor_km":6970.8685559376,"source":"CELESTRAK","updated_at":"2026-09-20T09:00:25.164448Z"}}